Location: Irma
(52.9170°N, 111.2330°W)
Time: 13:02:12
(UTC-06:00)

Amateur Radio Satellites - All Passes

Search period start: 24 April 2017 12:32
Search period end: 25 April 2017 12:32
Location: Irma, 52.9170°N, 111.2330°W

Satellite Date Start Highest point End Downlink Frequencies (MHz)
Time Altitude Azimuth
EO-79 24 Apr 12:34:34 12:38:43 54° 259° (W) 12:42:53 145.935-145.965
HO-68 24 Apr 12:39:05 12:42:17 14° 328° (NNW) 12:45:28 435.675
DUCHIFAT 1 24 Apr 12:39:46 12:43:54 57° 259° (W) 12:48:03 145.980
PCSat 24 Apr 12:43:27 12:48:46 56° 239° (WSW) 12:54:03 145.827
DELFI C3 24 Apr 12:45:46 12:48:32 18° 301° (WNW) 12:51:18 145.870
YUBILEINY 24 Apr 12:48:33 12:49:23 10° 25° (NNE) 12:50:12 435.215
FO-29 24 Apr 12:50:39 12:53:24 13° 275° (W) 12:56:03 435.910
ESTCUBE 1 24 Apr 12:52:40 12:57:10 56° 101° (E) 13:01:38 437.505/2401.250
O/OREOS (USA 219) 24 Apr 12:53:33 12:58:02 51° 306° (NW) 13:02:34 437.305
Gurwin Techsat 1B 24 Apr 12:54:50 12:59:10 26° 57° (ENE) 13:03:30 435.225
50 SAT 24 Apr 13:02:52 13:04:20 12° 88° (E) 13:05:47 437.505
SPROUT 24 Apr 13:04:10 13:07:35 23° 92° (E) 13:10:58 437.525
RS-15 24 Apr 13:05:44 13:17:38 48° 356° (N) 13:29:25 29.354- 29.394
Tancredo 1 24 Apr 13:13:05 13:16:11 71° 180° (S) 13:19:17 437.200
Oscar 19 24 Apr 13:13:16 13:18:14 49° 66° (ENE) 13:23:15 437.125/150
POLYITAN 1 24 Apr 13:14:01 13:17:28 24° 267° (W) 13:20:56 437.675
ISS 24 Apr 13:14:58 13:18:13 71° 177° (S) 13:21:28 437.550
VELOX 1 24 Apr 13:17:30 13:21:31 32° 96° (E) 13:25:28 145.980
QB50P2 24 Apr 13:20:53 13:24:02 20° 269° (W) 13:27:11 145.880/145.840
SO-50 24 Apr 13:23:14 13:26:45 21° 14° (NNE) 13:30:15 436.795
LO-87 24 Apr 13:44:01 13:46:56 23° 296° (WNW) 13:49:49 145.935 - 145.965
NANOSAT C BR1 24 Apr 13:46:36 13:48:51 14° 273° (W) 13:51:05 145.865
UKube-1 24 Apr 13:50:37 13:53:54 21° 92° (E) 13:57:09 .
BUGSAT 1 24 Apr 13:52:46 13:56:27 30° 264° (W) 14:00:07 437.445
AO-85 24 Apr 13:59:10 14:02:45 28° 121° (ESE) 14:06:12 145.980
AO-7 24 Apr 14:14:55 14:22:25 40° 51° (NE) 14:29:55 .
DX 1 24 Apr 14:17:42 14:21:58 48° 100° (E) 14:26:10 434.975-435.025
BEESAT 3 24 Apr 14:27:25 14:28:46 11° 111° (ESE) 14:30:07 437.485
PCSat 24 Apr 14:29:51 14:31:01 11° 259° (W) 14:32:10 145.827
ESTCUBE 1 24 Apr 14:30:01 14:33:41 24° 300° (WNW) 14:37:19 437.505/2401.250
Gurwin Techsat 1B 24 Apr 14:33:26 14:38:44 67° 257° (WSW) 14:44:04 435.225
ITAMSAT 1 24 Apr 14:34:03 14:38:34 31° 60° (ENE) 14:43:05 435.822/435.867
50 SAT 24 Apr 14:34:13 14:37:43 68° 288° (WNW) 14:41:11 437.505
O/OREOS (USA 219) 24 Apr 14:36:06 14:38:34 14° 329° (NNW) 14:41:03 437.305
SPROUT 24 Apr 14:39:38 14:43:45 48° 292° (WNW) 14:47:49 437.525
YUBILEINY 24 Apr 14:42:43 14:50:11 30° 56° (NE) 14:57:37 435.215
Tancredo 1 24 Apr 14:48:58 14:51:57 42° 199° (SSW) 14:54:55 437.200
ISS 24 Apr 14:51:24 14:54:34 48° 197° (SSW) 14:57:43 437.550
Oscar 19 24 Apr 14:53:14 14:57:47 31° 266° (W) 15:02:22 437.125/150
VELOX 1 24 Apr 14:53:54 14:58:02 38° 295° (WNW) 15:02:07 145.980
SO-50 24 Apr 15:03:45 15:08:10 50° 37° (NE) 15:12:34 436.795
RS-15 24 Apr 15:20:33 15:32:51 61° 28° (NNE) 15:44:44 29.354- 29.394
BEESAT 24 Apr 15:21:23 15:24:38 18° 89° (E) 15:27:51 436.000
UKube-1 24 Apr 15:26:01 15:30:16 56° 291° (WNW) 15:34:30 .
MOZHAYETS 4 24 Apr 15:37:34 15:39:49 13° 86° (E) 15:42:05
AO-85 24 Apr 15:38:55 15:42:58 51° 320° (NW) 15:46:51 145.980
DX 1 24 Apr 15:54:18 15:57:56 26° 299° (WNW) 16:01:32 434.975-435.025
BEESAT 2 24 Apr 15:55:27 15:58:57 30° 121° (ESE) 16:02:31 435.950
ITUPSAT 1 24 Apr 15:59:34 16:03:59 35° 97° (E) 16:08:22 437.325
BEESAT 3 24 Apr 16:01:40 16:05:37 72° 130° (SE) 16:09:39 437.485
AO-7 24 Apr 16:06:32 16:14:48 70° 253° (WSW) 16:23:07 .
ITAMSAT 1 24 Apr 16:12:47 16:17:50 52° 259° (W) 16:22:56 435.822/435.867
Gurwin Techsat 1B 24 Apr 16:17:43 16:19:43 12° 277° (W) 16:21:45 435.225
Tancredo 1 24 Apr 16:25:46 16:27:18 13° 218° (SW) 16:28:50 437.200
ISS 24 Apr 16:28:26 16:30:31 16° 216° (SW) 16:32:35 437.550
YUBILEINY 24 Apr 16:39:23 16:48:11 86° 261° (W) 16:56:59 435.215
SO-50 24 Apr 16:44:26 16:48:32 35° 238° (WSW) 16:52:38 436.795
DOVE 4 24 Apr 16:56:29 17:00:39 24° 59° (ENE) 17:04:45 437.250
BEESAT 24 Apr 16:58:11 17:02:58 76° 289° (WNW) 17:07:43 436.000
CUTE-I 24 Apr 17:04:23 17:08:18 21° 53° (NE) 17:12:12 437.470
UKube-1 24 Apr 17:04:31 17:05:24 11° 311° (NW) 17:06:17 .
NUDT-PHONESAT 24 Apr 17:08:21 17:09:24 11° 55° (NE) 17:10:27 437.300
MOZHAYETS 4 24 Apr 17:13:04 17:17:42 86° 106° (ESE) 17:22:20
AO-85 24 Apr 17:21:18 17:24:10 18° 343° (NNW) 17:27:00 145.980
BEESAT 2 24 Apr 17:32:42 17:36:35 48° 321° (NW) 17:40:33 435.950
RS-15 24 Apr 17:33:45 17:45:56 69° 237° (WSW) 17:57:36 29.354- 29.394
XW-2D 24 Apr 17:35:08 17:38:09 23° 63° (ENE) 17:41:11 145.860 - 145.880
ITUPSAT 1 24 Apr 17:37:26 17:41:51 38° 296° (WNW) 17:46:16 437.325
BEESAT 3 24 Apr 17:40:08 17:43:36 27° 332° (NNW) 17:47:06 437.485
XW-2B 24 Apr 17:41:50 17:44:59 26° 64° (ENE) 17:48:10 145.730 - 145.750
KKS-1 24 Apr 17:42:59 17:47:07 36° 97° (E) 17:51:13 437.445
LilacSat-2 24 Apr 17:49:43 17:53:06 32° 66° (ENE) 17:56:31 437.200
HO-68 24 Apr 17:51:05 17:56:38 25° 47° (NE) 18:02:13 435.675
XW-2C 24 Apr 17:53:20 17:56:43 33° 67° (ENE) 18:00:08 145.795 - 145.815
KAITUO 1B 24 Apr 17:57:02 18:00:17 30° 66° (ENE) 18:03:34 145.475/437.950
CUBESAT XI-V 24 Apr 17:57:30 18:02:07 50° 99° (E) 18:06:42 437.345
AO-7 24 Apr 18:03:49 18:09:11 18° 276° (W) 18:14:34 .
XW-2F 24 Apr 18:20:18 18:23:59 61° 72° (ENE) 18:27:41 145.980 - 146.000
STARS 24 Apr 18:21:26 18:25:35 40° 98° (E) 18:29:41 437.465
DOVE 4 24 Apr 18:32:35 18:37:54 72° 258° (WSW) 18:43:07 437.250
YUBILEINY 24 Apr 18:37:16 18:43:47 24° 285° (WNW) 18:50:20 435.215
BEESAT 24 Apr 18:37:18 18:40:00 15° 309° (NW) 18:42:42 436.000
NUDT-PHONESAT 24 Apr 18:39:01 18:42:41 81° 75° (ENE) 18:46:22 437.300
CUTE-I 24 Apr 18:42:23 18:47:45 86° 254° (WSW) 18:53:08 437.470
MOZHAYETS 4 24 Apr 18:51:17 18:54:17 17° 305° (NW) 18:57:17
AO-85 24 Apr 19:03:31 19:05:58 16° 8° (N) 19:08:26 145.980
XW-2D 24 Apr 19:08:40 19:12:11 39° 262° (W) 19:15:45 145.860 - 145.880
BEESAT 2 24 Apr 19:12:21 19:15:15 18° 344° (NNW) 19:18:09 435.950
XW-2B 24 Apr 19:15:39 19:19:05 34° 263° (W) 19:22:34 145.730 - 145.750
CUTE 1.7 + AOD 2 24 Apr 19:18:01 19:22:00 42° 68° (ENE) 19:26:01 437.475
ZACube-1 24 Apr 19:19:11 19:20:24 11° 52° (NE) 19:21:37 437.345
KKS-1 24 Apr 19:19:39 19:23:39 33° 296° (WNW) 19:27:37 437.445
BEESAT 3 24 Apr 19:19:56 19:22:24 15° 355° (N) 19:24:52 437.485
AAUSAT CUBESAT 2 24 Apr 19:23:06 19:26:06 20° 59° (ENE) 19:29:07 437.432
LilacSat-2 24 Apr 19:24:10 19:27:26 27° 266° (W) 19:30:42 437.200
XW-2A 24 Apr 19:25:38 19:28:52 46° 71° (ENE) 19:32:07 145.665 - 145.685
AO-73 24 Apr 19:27:03 19:28:38 12° 53° (NE) 19:30:11 145.935
XW-2C 24 Apr 19:27:48 19:30:59 26° 266° (W) 19:34:11 145.795 - 145.815
KAITUO 1B 24 Apr 19:31:04 19:34:18 28° 265° (W) 19:37:34 145.475/437.950
CUBESAT XI-V 24 Apr 19:35:17 19:39:17 28° 299° (WNW) 19:43:15 437.345
HO-68 24 Apr 19:36:20 19:43:29 82° 69° (ENE) 19:50:42 435.675
O/OREOS (USA 219) 24 Apr 19:39:07 19:43:07 28° 45° (NE) 19:47:05 437.305
SEEDS 24 Apr 19:42:23 19:46:25 49° 69° (ENE) 19:50:31 437.485
Oscar 11 24 Apr 19:44:23 19:46:55 15° 55° (NE) 19:49:27 .
RS-15 24 Apr 19:47:36 19:56:03 23° 263° (W) 20:04:18 29.354- 29.394
UWE-3 24 Apr 19:51:42 19:55:26 30° 64° (ENE) 19:59:07 435.000/436.395/437.385
XW-2F 24 Apr 19:56:20 19:58:31 15° 271° (W) 20:00:43 145.980 - 146.000
STARS 24 Apr 19:58:01 20:01:50 30° 298° (WNW) 20:05:38 437.465
CUBEBUG 2 24 Apr 19:59:28 20:03:42 53° 70° (ENE) 20:07:51 437.445
M-CUBED/EXP-1 PRIME 24 Apr 20:12:38 20:15:43 19° 95° (E) 20:18:39 437.505
DOVE 4 24 Apr 20:13:58 20:16:27 13° 277° (W) 20:18:55 437.250
NUDT-PHONESAT 24 Apr 20:16:01 20:17:08 11° 273° (W) 20:18:17 437.300
CUTE-I 24 Apr 20:25:20 20:28:36 16° 274° (W) 20:31:53 437.470
DELFI C3 24 Apr 20:28:58 20:30:46 13° 55° (NE) 20:32:34 145.870
AO-85 24 Apr 20:43:53 20:47:28 32° 32° (NNE) 20:51:05 145.980
NO-84 24 Apr 20:46:17 20:47:34 12° 134° (SE) 20:48:49 435.350 FM
ZACube-1 24 Apr 20:51:46 20:55:56 66° 72° (ENE) 21:00:04 437.345
BEESAT 2 24 Apr 20:51:50 20:54:25 16° 8° (N) 20:57:00 435.950
STRAND 1 24 Apr 20:52:10 20:57:14 60° 102° (ESE) 21:02:16 437.568
CUTE 1.7 + AOD 2 24 Apr 20:54:26 20:58:00 26° 267° (W) 21:01:35 437.475
AAUSAT CUBESAT 2 24 Apr 20:57:04 21:01:10 62° 259° (WSW) 21:05:20 437.432
BEESAT 3 24 Apr 20:58:22 21:01:23 20° 19° (NNE) 21:04:22 437.485
XW-2A 24 Apr 20:59:48 21:01:53 15° 269° (W) 21:03:59 145.665 - 145.685
AO-73 24 Apr 21:00:00 21:04:10 73° 73° (ENE) 21:08:18 145.935
Oscar 11 24 Apr 21:18:08 21:22:27 89° 242° (WSW) 21:26:49 .
O/OREOS (USA 219) 24 Apr 21:18:19 21:22:51 56° 247° (WSW) 21:27:19 437.305
SEEDS 24 Apr 21:19:04 21:22:23 22° 269° (W) 21:25:43 437.485
HO-68 24 Apr 21:26:14 21:32:02 26° 270° (W) 21:37:53 435.675
UWE-3 24 Apr 21:27:55 21:31:51 36° 263° (W) 21:35:46 435.000/436.395/437.385
CUBEBUG 2 24 Apr 21:37:19 21:40:38 21° 269° (W) 21:43:54 437.445
OBJECT BX 24 Apr 21:40:50 21:44:14 39° 68° (ENE) 21:47:40 145.990 - 145.960
M-CUBED/EXP-1 PRIME 24 Apr 21:46:14 21:50:38 64° 295° (WNW) 21:54:40 437.505
DELFI C3 24 Apr 22:00:55 22:04:55 82° 74° (ENE) 22:08:57 145.870
TIGRISAT 24 Apr 22:19:09 22:20:58 12° 86° (E) 22:22:47 435.000
NO-84 24 Apr 22:21:15 22:24:35 49° 151° (SSE) 22:27:39 435.350 FM
ESTCUBE 1 24 Apr 22:22:59 22:26:01 18° 56° (NE) 22:29:05 437.505/2401.250
AO-85 24 Apr 22:24:12 22:28:02 51° 233° (SW) 22:31:58 145.980
BEESAT 2 24 Apr 22:29:40 22:33:19 31° 31° (NNE) 22:36:59 435.950
ZACube-1 24 Apr 22:29:59 22:32:41 16° 271° (W) 22:35:21 437.345
STRAND 1 24 Apr 22:31:52 22:36:06 27° 302° (WNW) 22:40:21 437.568
BEESAT 3 24 Apr 22:35:45 22:39:45 56° 40° (NE) 22:43:43 437.485
AO-73 24 Apr 22:38:29 22:40:54 15° 272° (W) 22:43:20 145.935
UNISAT 6 24 Apr 22:38:40 22:41:52 20° 91° (E) 22:45:03 437.425
PRISM 24 Apr 22:45:12 22:48:59 32° 96° (E) 22:52:44 437.425
VELOX 1 24 Apr 22:47:27 22:48:55 11° 50° (NE) 22:50:22 145.980
LO-87 24 Apr 22:51:50 22:55:14 38° 68° (ENE) 22:58:38 145.935 - 145.965
Oscar 11 24 Apr 22:57:23 22:59:17 13° 275° (W) 23:01:11 .
OBJECT BX 24 Apr 23:15:15 23:18:05 21° 267° (W) 23:20:57 145.990 - 145.960
M-CUBED/EXP-1 PRIME 24 Apr 23:22:01 23:24:12 14° 316° (NW) 23:26:19 437.505
DELFI C3 24 Apr 23:38:28 23:40:16 13° 274° (W) 23:42:05 145.870
50 SAT 24 Apr 23:41:28 23:43:21 14° 58° (ENE) 23:45:15 437.505
DX 1 24 Apr 23:44:50 23:47:27 16° 54° (NE) 23:50:06 434.975-435.025
FO-29 24 Apr 23:48:17 23:53:25 59° 102° (ESE) 23:58:41 435.910
TIGRISAT 24 Apr 23:54:02 23:58:20 89° 116° (ESE) 00:02:37 435.000
ESTCUBE 1 24 Apr 23:57:47 00:02:18 80° 257° (WSW) 00:06:52 437.505/2401.250
NO-84 24 Apr 23:58:52 00:02:06 62° 351° (N) 00:05:06 435.350 FM
SPROUT 25 Apr 00:02:53 00:06:50 37° 66° (ENE) 00:10:48 437.525
BEESAT 2 25 Apr 00:07:20 00:11:22 59° 231° (SW) 00:15:21 435.950
BEESAT 3 25 Apr 00:13:46 00:17:06 25° 241° (WSW) 00:20:25 437.485
EO-79 25 Apr 00:13:53 00:16:35 16° 89° (E) 00:19:16 145.935-145.965
UNISAT 6 25 Apr 00:14:44 00:18:56 56° 290° (WNW) 00:23:08 437.425
DUCHIFAT 1 25 Apr 00:18:33 00:21:03 15° 88° (E) 00:23:32 145.980
VELOX 1 25 Apr 00:20:06 00:24:29 59° 70° (ENE) 00:28:54 145.980
PRISM 25 Apr 00:20:30 00:24:17 33° 296° (WNW) 00:28:01 437.425
LO-87 25 Apr 00:25:55 00:28:49 22° 267° (W) 00:31:43 145.935 - 145.965
AIST 2D 25 Apr 00:38:53 00:42:19 46° 100° (E) 00:45:43 435.315
UKube-1 25 Apr 00:50:20 00:54:20 38° 65° (ENE) 00:58:22 .
POLYITAN 1 25 Apr 00:51:42 00:55:36 35° 97° (E) 00:59:28 437.675
QB50P2 25 Apr 00:58:07 01:02:10 44° 99° (E) 01:06:11 145.880/145.840
50 SAT 25 Apr 01:12:22 01:15:51 68° 257° (WSW) 01:19:21 437.505
DX 1 25 Apr 01:18:39 01:23:02 89° 74° (ENE) 01:27:28 434.975-435.025
Oscar 19 25 Apr 01:21:13 01:22:17 11° 82° (E) 01:23:21 437.125/150
NANOSAT C BR1 25 Apr 01:22:05 01:26:16 64° 103° (ESE) 01:30:25 145.865
BUGSAT 1 25 Apr 01:28:07 01:31:28 24° 94° (E) 01:34:46 437.445
TIGRISAT 25 Apr 01:32:01 01:34:26 15° 305° (NW) 01:36:52 435.000
FO-29 25 Apr 01:34:01 01:38:17 26° 302° (WNW) 01:42:35 435.910
NO-84 25 Apr 01:36:43 01:39:48 67° 13° (NNE) 01:42:43 435.350 FM
ITUPSAT 1 25 Apr 01:36:44 01:39:36 16° 52° (NE) 01:42:27 437.325
ESTCUBE 1 25 Apr 01:38:04 01:39:52 12° 275° (W) 01:41:41 437.505/2401.250
SPROUT 25 Apr 01:39:03 01:42:49 30° 265° (W) 01:46:37 437.525
EO-79 25 Apr 01:48:37 01:52:49 68° 287° (WNW) 01:56:58 145.935-145.965
DUCHIFAT 1 25 Apr 01:53:03 01:57:14 72° 288° (WNW) 02:01:23 145.980
VELOX 1 25 Apr 01:57:56 02:01:19 21° 269° (W) 02:04:42 145.980
AIST 2D 25 Apr 02:12:47 02:15:16 18° 298° (WNW) 02:17:44 435.315
UKube-1 25 Apr 02:26:35 02:30:27 31° 264° (W) 02:34:19 .
POLYITAN 1 25 Apr 02:27:38 02:31:21 31° 296° (WNW) 02:35:02 437.675
BEESAT 25 Apr 02:33:05 02:37:31 40° 65° (ENE) 02:41:57 436.000
QB50P2 25 Apr 02:34:18 02:37:48 26° 298° (WNW) 02:41:17 145.880/145.840
Gurwin Techsat 1B 25 Apr 02:43:34 02:48:17 31° 94° (E) 02:52:59 435.225
MOZHAYETS 4 25 Apr 02:44:35 02:48:21 26° 61° (ENE) 02:52:08
Oscar 19 25 Apr 02:57:31 03:02:43 61° 102° (ESE) 03:07:52 437.125/150
DX 1 25 Apr 02:57:42 02:59:53 13° 273° (W) 03:02:04 434.975-435.025
NANOSAT C BR1 25 Apr 02:58:36 03:01:36 19° 302° (WNW) 03:04:34 145.865
BUGSAT 1 25 Apr 03:03:11 03:06:59 41° 293° (WNW) 03:10:45 437.445
ITUPSAT 1 25 Apr 03:11:58 03:16:44 81° 71° (ENE) 03:21:31 437.325
KKS-1 25 Apr 03:12:55 03:15:05 13° 52° (NE) 03:17:15 437.445
NO-84 25 Apr 03:14:26 03:17:10 35° 213° (SSW) 03:19:49 435.350 FM
EO-79 25 Apr 03:26:20 03:27:49 12° 308° (NW) 03:29:17 145.935-145.965
DUCHIFAT 1 25 Apr 03:30:31 03:32:11 12° 307° (NW) 03:33:52 145.980
PCSat 25 Apr 03:30:52 03:35:51 39° 116° (ESE) 03:40:52 145.827
CUBESAT XI-V 25 Apr 03:31:15 03:34:18 18° 55° (NE) 03:37:22 437.345
STARS 25 Apr 03:49:57 03:52:11 14° 53° (NE) 03:54:27 437.465
YUBILEINY 25 Apr 03:53:50 04:00:20 24° 75° (ENE) 04:06:50 435.215
AO-7 25 Apr 04:01:26 04:08:25 29° 91° (E) 04:15:23 .
BEESAT 25 Apr 04:11:04 04:15:23 33° 264° (W) 04:19:42 436.000
ITAMSAT 1 25 Apr 04:19:17 04:24:02 35° 96° (E) 04:28:45 435.822/435.867
MOZHAYETS 4 25 Apr 04:20:52 04:25:17 50° 260° (W) 04:29:45
Gurwin Techsat 1B 25 Apr 04:23:20 04:28:28 50° 294° (WNW) 04:33:35 435.225
Oscar 19 25 Apr 04:37:22 04:41:43 27° 302° (WNW) 04:46:02 437.125/150
KKS-1 25 Apr 04:46:25 04:50:53 71° 72° (ENE) 04:55:22 437.445
ITUPSAT 1 25 Apr 04:52:08 04:55:10 17° 272° (W) 04:58:14 437.325
CUBESAT XI-V 25 Apr 05:06:24 05:11:04 87° 254° (WSW) 05:15:48 437.345
PCSat 25 Apr 05:13:52 05:19:10 52° 318° (NW) 05:24:31 145.827
STARS 25 Apr 05:23:26 05:27:50 76° 73° (ENE) 05:32:15 437.465
M-CUBED/EXP-1 PRIME 25 Apr 05:30:52 05:33:24 15° 45° (NE) 05:35:55 437.505
YUBILEINY 25 Apr 05:47:14 05:55:57 87° 99° (E) 06:04:43 435.215
AO-7 25 Apr 05:53:47 06:02:09 84° 294° (WNW) 06:10:29 .
ITAMSAT 1 25 Apr 05:58:44 06:03:37 44° 296° (WNW) 06:08:29 435.822/435.867
RS-15 25 Apr 06:03:32 06:05:52 11° 86° (E) 06:08:12 29.354- 29.394
Gurwin Techsat 1B 25 Apr 06:05:15 06:07:18 12° 315° (NW) 06:09:20 435.225
KKS-1 25 Apr 06:24:57 06:27:57 17° 271° (W) 06:30:57 437.445
DOVE 4 25 Apr 06:26:22 06:30:03 22° 89° (E) 06:33:34 437.250
XW-2D 25 Apr 06:35:48 06:38:04 15° 89° (E) 06:40:20 145.860 - 145.880
STRAND 1 25 Apr 06:36:02 06:40:23 29° 59° (ENE) 06:44:44 437.568
XW-2B 25 Apr 06:42:28 06:45:01 17° 90° (E) 06:47:34 145.730 - 145.750
CUBESAT XI-V 25 Apr 06:46:46 06:49:11 14° 275° (W) 06:51:36 437.345
LilacSat-2 25 Apr 06:51:02 06:54:03 22° 92° (E) 06:57:03 437.200
CUTE-I 25 Apr 06:53:40 06:57:57 24° 91° (E) 07:02:13 437.470
XW-2C 25 Apr 06:53:57 06:56:59 22° 93° (E) 07:00:00 145.795 - 145.815
KAITUO 1B 25 Apr 06:56:11 06:58:56 19° 91° (E) 07:01:41 145.475/437.950
PCSat 25 Apr 06:59:33 07:03:46 22° 342° (NNW) 07:08:00 145.827
HO-68 25 Apr 07:00:50 07:02:20 11° 78° (ENE) 07:03:49 435.675
STARS 25 Apr 07:02:00 07:04:44 16° 271° (W) 07:07:27 437.465
M-CUBED/EXP-1 PRIME 25 Apr 07:02:25 07:07:01 63° 64° (ENE) 07:11:39 437.505
SO-50 25 Apr 07:05:08 07:08:08 17° 114° (ESE) 07:11:06 436.795
XW-2F 25 Apr 07:20:27 07:24:01 38° 98° (E) 07:27:36 145.980 - 146.000
NUDT-PHONESAT 25 Apr 07:37:15 07:40:52 47° 100° (E) 07:44:29 437.300
ITAMSAT 1 25 Apr 07:40:53 07:41:53 11° 317° (NW) 07:42:52 435.822/435.867
YUBILEINY 25 Apr 07:46:38 07:53:58 29° 304° (NW) 08:01:23 435.215
AO-7 25 Apr 07:47:09 07:53:58 30° 317° (NW) 08:00:48 .
DOVE 4 25 Apr 08:03:27 08:08:12 59° 290° (WNW) 08:12:38 437.250
RS-15 25 Apr 08:03:32 08:14:39 45° 111° (ESE) 08:25:59 29.354- 29.394
XW-2D 25 Apr 08:08:54 08:12:40 62° 287° (WNW) 08:16:26 145.860 - 145.880
STRAND 1 25 Apr 08:14:19 08:19:20 55° 259° (W) 08:24:21 437.568
XW-2A 25 Apr 08:14:30 08:17:10 21° 94° (E) 08:19:49 145.665 - 145.685
XW-2B 25 Apr 08:15:49 08:19:32 55° 289° (WNW) 08:23:17 145.730 - 145.750
LilacSat-2 25 Apr 08:24:52 08:28:31 42° 291° (WNW) 08:32:09 437.200
FO-29 25 Apr 08:25:36 08:28:10 13° 47° (NE) 08:30:39 435.910
XW-2C 25 Apr 08:27:45 08:31:21 41° 291° (WNW) 08:34:56 145.795 - 145.815
KAITUO 1B 25 Apr 08:29:34 08:33:12 47° 290° (WNW) 08:36:50 145.475/437.950
CUTE 1.7 + AOD 2 25 Apr 08:32:15 08:36:15 36° 96° (E) 08:40:13 437.475
CUTE-I 25 Apr 08:33:11 08:38:28 65° 291° (WNW) 08:43:43 437.470
AAUSAT CUBESAT 2 25 Apr 08:34:07 08:36:31 15° 87° (E) 08:38:54 437.432
M-CUBED/EXP-1 PRIME 25 Apr 08:38:06 08:41:46 23° 263° (W) 08:45:29 437.505
SO-50 25 Apr 08:43:23 08:48:00 88° 129° (SE) 08:52:34 436.795
HO-68 25 Apr 08:44:55 08:51:54 50° 100° (E) 08:58:52 435.675
PCSat 25 Apr 08:45:16 08:49:06 19° 8° (N) 08:52:56 145.827
XW-2F 25 Apr 08:54:55 08:58:01 24° 296° (WNW) 09:01:08 145.980 - 146.000
SEEDS 25 Apr 08:55:28 08:59:32 41° 97° (E) 09:03:34 437.485
Oscar 11 25 Apr 09:01:01 09:02:41 12° 85° (E) 09:04:21 .
UWE-3 25 Apr 09:10:54 09:14:31 28° 94° (E) 09:18:09 435.000/436.395/437.385
NUDT-PHONESAT 25 Apr 09:11:47 09:14:31 20° 298° (WNW) 09:17:16 437.300
CUBEBUG 2 25 Apr 09:20:21 09:24:25 51° 100° (E) 09:28:30 437.445
TIGRISAT 25 Apr 09:22:49 09:26:19 24° 61° (ENE) 09:29:46 435.000
PRISM 25 Apr 09:39:46 09:43:49 52° 69° (ENE) 09:47:54 437.425
AO-7 25 Apr 09:40:30 09:44:10 14° 343° (NNW) 09:47:51 .
UNISAT 6 25 Apr 09:42:54 09:46:55 37° 66° (ENE) 09:50:53 437.425
DOVE 4 25 Apr 09:43:03 09:44:52 12° 312° (NW) 09:46:38 437.250
XW-2A 25 Apr 09:46:58 09:50:01 32° 292° (WNW) 09:53:03 145.665 - 145.685
FO-29 25 Apr 10:06:21 10:12:18 54° 67° (ENE) 10:17:41 435.910
CUTE 1.7 + AOD 2 25 Apr 10:08:14 10:12:02 31° 296° (WNW) 10:15:49 437.475
AAUSAT CUBESAT 2 25 Apr 10:08:17 10:12:30 76° 286° (WNW) 10:16:42 437.432
ZACube-1 25 Apr 10:09:47 10:13:57 62° 102° (ESE) 10:18:09 437.345
RS-15 25 Apr 10:14:12 10:26:30 79° 318° (NW) 10:38:58 29.354- 29.394
CUTE-I 25 Apr 10:14:39 10:17:36 15° 312° (NW) 10:20:33 437.470
AO-73 25 Apr 10:17:37 10:21:48 67° 101° (ESE) 10:26:02 145.935
POLYITAN 1 25 Apr 10:18:09 10:18:51 10° 51° (NE) 10:19:33 437.675
QB50P2 25 Apr 10:23:30 10:25:15 12° 53° (NE) 10:26:59 145.880/145.840
SO-50 25 Apr 10:25:00 10:28:59 28° 335° (NNW) 10:32:57 436.795
PCSat 25 Apr 10:29:07 10:34:06 34° 33° (NNE) 10:39:02 145.827
SEEDS 25 Apr 10:31:27 10:35:05 28° 297° (WNW) 10:38:42 437.485
HO-68 25 Apr 10:32:51 10:39:38 47° 301° (WNW) 10:46:25 435.675
Oscar 11 25 Apr 10:35:09 10:39:32 83° 102° (ESE) 10:43:54 .
OBJECT BX 25 Apr 10:37:25 10:40:21 22° 93° (E) 10:43:17 145.990 - 145.960
Tancredo 1 25 Apr 10:37:34 10:40:15 27° 153° (SSE) 10:42:57 437.200
NANOSAT C BR1 25 Apr 10:45:59 10:48:37 16° 56° (ENE) 10:51:14 145.865
ISS 25 Apr 10:46:58 10:49:48 27° 152° (SSE) 10:52:38 437.550
UWE-3 25 Apr 10:47:13 10:51:05 38° 293° (WNW) 10:54:59 435.000/436.395/437.385
CUBEBUG 2 25 Apr 10:57:34 11:00:47 22° 299° (WNW) 11:04:01 437.445
TIGRISAT 25 Apr 10:58:31 11:02:47 50° 260° (W) 11:06:59 435.000
DELFI C3 25 Apr 11:06:35 11:10:35 58° 101° (E) 11:14:32 145.870
EO-79 25 Apr 11:11:34 11:15:09 27° 62° (ENE) 11:18:43 145.935-145.965
DUCHIFAT 1 25 Apr 11:15:36 11:19:04 25° 62° (ENE) 11:22:31 145.980
PRISM 25 Apr 11:16:13 11:19:23 21° 268° (W) 11:22:35 437.425
AIST 2D 25 Apr 11:18:50 11:22:09 43° 70° (ENE) 11:25:29 435.315
UNISAT 6 25 Apr 11:19:48 11:23:42 31° 265° (W) 11:27:34 437.425
AO-7 25 Apr 11:30:33 11:33:33 12° 11° (N) 11:36:33 .
O/OREOS (USA 219) 25 Apr 11:36:14 11:40:42 51° 112° (ESE) 11:45:11 437.305
ESTCUBE 1 25 Apr 11:45:15 11:47:52 15° 87° (E) 11:50:29 437.505/2401.250
AAUSAT CUBESAT 2 25 Apr 11:45:24 11:47:15 13° 306° (NW) 11:49:08 437.432
LO-87 25 Apr 11:46:32 11:49:17 20° 92° (E) 11:52:00 145.935 - 145.965
ZACube-1 25 Apr 11:46:51 11:49:53 20° 300° (WNW) 11:52:56 437.345
POLYITAN 1 25 Apr 11:49:39 11:53:47 58° 71° (ENE) 11:57:57 437.675
FO-29 25 Apr 11:52:14 11:57:41 31° 265° (W) 12:02:39 435.910
AO-73 25 Apr 11:54:45 11:57:39 18° 301° (WNW) 12:00:33 145.935
QB50P2 25 Apr 11:56:06 12:00:19 72° 72° (ENE) 12:04:32 145.880/145.840
SO-50 25 Apr 12:07:32 12:10:47 19° 359° (N) 12:14:02 436.795
OBJECT BX 25 Apr 12:10:46 12:14:11 37° 292° (WNW) 12:17:35 145.990 - 145.960
Oscar 11 25 Apr 12:12:24 12:15:07 17° 304° (NW) 12:17:51 .
PCSat 25 Apr 12:12:30 12:17:57 71° 236° (SW) 12:23:21 145.827
Tancredo 1 25 Apr 12:12:48 12:15:52 65° 172° (S) 12:18:58 437.200
NANOSAT C BR1 25 Apr 12:19:35 12:23:49 81° 257° (WSW) 12:28:02 145.865
HO-68 25 Apr 12:21:49 12:25:45 16° 324° (NW) 12:29:41 435.675
ISS 25 Apr 12:22:44 12:25:58 65° 172° (S) 12:29:12 437.550
BUGSAT 1 25 Apr 12:23:05 12:26:56 39° 67° (ENE) 12:30:46 437.445
